CZ-6A DEB

Satellite information

Favourite Embed

Satellite Type and Status

DEBRISIN ORBIT

Key statistics

Satellite CZ-6A DEB at a glance.

Uptime

396

Days in orbit

Revolutions

≈ 14.6

Per day

Orbit

LEO

Low Earth Orbit

Inclination

89.0

Latest

Satellite identification and parameters

Extended collection of information and parameters for CZ-6A DEB.

Object identification

Identified? True

Debris? True

Object name: CZ-6A DEB

International designator: 2024-140HY

Object number (NORAD): 60845

Object ID (CCSDS): 60845

Country: PEOPLES REPUBLIC OF CHINA (PRC)

Current information (Y/N): Y

RCS size: SMALL

Orbital parameters

Period: 98.931 minutes

Inclination: 89.0408 deg

SMA: 7085.662 km

Apoapsis: 796.537 km

Periapsis: 618.518 km

RAAN: 306.0829 deg

Eccentricy: 0.01256197

Argument of periapsis: 146.3821 deg

Mean anomaly: 214.5441 deg

Mean motion: 14.55566561 rev/day

Mean motion (dot): 0.00001068 rev/day2

B* drag term: 0.00021618424 1/REarth

Two-line elements (TLE)

Creation date: Sept. 6, 2025, 2:09 a.m.

Reference frame: TEME

Reference center: EARTH

Epoch: Sept. 5, 2025, 9:21 p.m. UTC

TLE line 0: 0 CZ-6A DEB

TLE line 1: 1 60845U 24140HY 25248.88997296 .00001068 00000-0 21618-3 0 9999

TLE line 2: 2 60845 89.0408 306.0829 0125620 146.3821 214.5441 14.55566561 56593

Live tracking on map

Real-time ground track for satellite CZ-6A DEB.

In-orbit conjunctions

A list of the most updated potential collisions computed for object CZ-6A DEB.

Target Orbit TCA Probability of collision Miss distance Type
FENGYUN 1C DEB SSO 2025-01-24 12:54:57 0.0001659837 219.0 (m) DEBRIS
CZ-6A DEB LEO 2024-11-23 11:42:20 0.0001336518 202.0 (m) DEBRIS
FENGYUN 1C DEB SSO 2024-11-11 06:12:24 0.0005093313 886.0 (m) DEBRIS
CZ-6A DEB LEO 2024-10-29 12:38:16 0.0007776209 183.0 (m) DEBRIS
COSMOS 2251 DEB LEO 2024-10-27 09:56:46 0.0002063427 280.0 (m) DEBRIS

Associated space launch

18 Low Earth Orbit communication satellites with Ku, Q and V band payloads for the G60 constellation operated by Shanghai Spacecom Satellite Technology (SSST) with funding backed by the Shanghai local government. Initial constellation will consist of 1296 satellites by 2027 with long term plans to expand it to 12000 satellites.

CZ-6A DEB was lifted into orbit during the mission ‘Long March 6A | G60 Polar Group 01’, on board a Long March 6A space rocket.

The launch took place on Aug. 6, 2024, 6:42 a.m. from Launch Complex 9A.

For more information about the launch, click the button.

Launch to space Long March 6A | G60 Polar Group 01
Long March 6A | G60 Polar Group 01

Agency: N/A

Status: Launch Successful

Launch date: Aug. 6, 2024, 6:42 a.m. UTC

Rocket: Long March 6A

Launch pad: Launch Complex 9A

Location: Taiyuan Satellite Launch Center, People's Republic of China

...

Latest news about this satellite

News about space launch
Brightness of first Chinese broadband constellation satellites alarms astronomers

The first satellites of a Chinese broadband constellation are significantly brighter than those of Western systems, posing a new challenge for astronomers.

News about space launch
Chinese rocket stage breaks up into cloud of more than 700 pieces of space debris

HELSINKI — A Chinese Long March 6A rocket’s upper stage has fragmented into a cloud of over 700 pieces of space debris, adding to concerns about long-term orbital safety. China […]

News about space launch
China's Thousand Sails Megaconstellation Kicks Off with Dangerous Debris Field

China's Thousand Sails Megaconstellation Kicks Off with Dangerous Debris Field


Newsletter sign-up

Weekly statistics, charts and insights to help you stay on top of the space industry.